Regional Weather Roundup
Issued by NWS

Home | Current Version | Previous Version | Graphics & Text | Print | Product List | Glossary On
Versions: 1 2 3 4 5 6 7 8 9 10 11 12 13 14 15 16 17 18 19 20 21 22 23 24 25 26 27 28 29 30 31 32 33 34 35 36 37 38 39 40 41 42 43 44 45 46 47 48 49 50
287
ASUS45 KBOU 021407
RWRCO

WEATHER ROUNDUP FOR COLORADO
NATIONAL WEATHER SERVICE DENVER/BOULDER CO
700 AM MST FRI DEC 02 2016

NOTE: "FAIR" INDICATES FEW OR NO CLOUDS BELOW 12000 FEET WITH NO
SIGNIFICANT WEATHER AND/OR OBSTRUCTIONS TO VISIBILITY.

COZ001>005-013-030-031-021500-
...NORTHWEST COLORADO...

CITY           SKY/WX    TMP DP  RH WIND       PRES   REMARKS
CRAIG          CLOUDY    12   7  80 CALM      30.10S
HAYDEN         CLOUDY    10   7  85 CALM      30.07S
MEEKER         MOCLDY    14  11  87 CALM      30.05S
MOUNT WERNER   NOT AVBL
STEAMBOAT SPGS CLOUDY    10   6  82 CALM      30.07R
WALDEN           N/A     12   9  85 CALM      30.05R VSB 3/4
$$

COZ006>008-011-021500-
...WEST CENTRAL VALLEYS...

CITY           SKY/WX    TMP DP  RH WIND       PRES   REMARKS
GRAND JUNCTION CLOUDY    28  22  78 CALM      30.06R
MONTROSE       MOCLDY    20  12  71 SE12      30.07R WCI   8
EAGLE          FLURRIES  18  16  93 CALM      30.08R
RIFLE          MOCLDY    21  18  88 SE5       30.07R WCI  15
DELTA          CLOUDY    25  19  78 NE3       30.07R
NUCLA          MOCLDY    23  14  68 E7        30.05R WCI  15
$$

COZ017>023-064>068-021500-
...SOUTHWEST COLORADO...

CITY           SKY/WX    TMP DP  RH WIND       PRES   REMARKS
DURANGO        CLOUDY    21  16  81 NE3       29.97R
CORTEZ         CLOUDY    20  16  84 NE3       29.99R
PAGOSA SPRINGS FAIR      21  13  72 CALM      29.99S
TELLURIDE      CLOUDY    14   9  81 CALM      29.97R
WOLF CREEK PAS LGT SNOW   9   9 100 S6        29.99R WCI  -1
$$

COZ009-010-012-014-032>034-037-058>063-021500-
...CENTRAL COLORADO...

CITY           SKY/WX    TMP DP  RH WIND       PRES   REMARKS
ASPEN          FAIR      10   6  84 S5        30.00R WCI   2
BUENA VISTA    NOT AVBL
COPPER MTN     FAIR      12   1  62 MISG      29.93R
BERTHOUD PASS  MOCLDY     3  -9  55 E12       29.92S WCI -13
COTTONWOOD PAS FLURRIES  19   9  63 CALM      29.98S
GUNNISON       FAIR       9   3  77 CALM      30.04R
KREMMLING      LGT SNOW  19  14  79 CALM      30.07R
LEADVILLE      CLOUDY     7   3  84 S6        29.96R WCI  -3
MONARCH PASS   CLOUDY     9   5  85 E7        30.04R WCI  -3
SALIDA         FAIR      14   6  72 CALM      30.14R
SUNLIGHT       CLOUDY   N/A N/A N/A NE7       29.98R
WILKERSON PASS CLOUDY    12   5  73 SE5       30.00R WCI   4
$$

COZ069>075-021500-
...SAN LUIS VALLEY/SANGRE DE CRISTO MOUNTAINS...

CITY           SKY/WX    TMP DP  RH WIND       PRES   REMARKS
ALAMOSA        CLOUDY     9   5  84 CALM      30.03R
LA VETA PASS   CLOUDY    18  12  79 W3        30.00S
SAGUACHE       CLOUDY    14   7  73 NW9       30.03R WCI   2
$$

COZ035-036-038>040-021500-
...NORTHERN COLORADO FRONT RANGE...

CITY           SKY/WX    TMP DP  RH WIND       PRES   REMARKS
DENVER INTL AP MOCLDY    23  12  62 SW5       30.12R WCI  17
DMNS CITY PARK   N/A     22  11  61 E8        30.13R WCI  12
AURORA         MOCLDY    20  11  68 S3        30.12R
FRONT RANGE AP NOT AVBL
ERIE MUNI ARPT CLOUDY    17  13  82 CALM      30.14R
BOULDER MUN AP CLOUDY    27  10  50 S6        30.13R WCI  20
CENTENNIAL     MOCLDY    22  11  62 CALM      30.11R
BROOMFIELD     MOCLDY    28  16  59 CALM      30.13R
FORT COLLINS   FAIR      19  12  73 CALM      30.13S
LONGMONT       CLOUDY    21  12  70 CALM      30.16R
$$

COZ041-046-047-076>085-087-088-021500-
...PIKES PEAK/PALMER DIVIDE AND SOUTHERN FOOTHILLS...

CITY           SKY/WX    TMP DP  RH WIND       PRES   REMARKS
COLO. SPRINGS  MOCLDY    20   6  55 N8        30.11R WCI  10
A. F. ACADEMY  CLOUDY    19   7  58 N8        30.09R WCI   9
SCHRIEVER AFB  NOT AVBL
ELLICOTT       CLOUDY   N/A N/A N/A E10         N/A
FALCON         MOCLDY    20   7  56 N8        30.09R WCI  11
FORT CARSON    FAIR      20   6  53 N9        30.10R WCI  10
LIMON          FAIR       8   5  87 CALM      30.12R
MONUMENT HILL  CLOUDY    18   9  68 W3        30.09R
TRINIDAD       FAIR      21   9  59 NW3       30.10R
$$

COZ042>045-048>051-090-091-021500-
...NORTHEAST COLORADO...

CITY           SKY/WX    TMP DP  RH WIND       PRES   REMARKS
GREELEY ARPT   MOCLDY    16  11  80 CALM      30.15R
AKRON          FAIR      19  13  77 W8        30.13R WCI   9
BURLINGTON     FAIR      15   8  73 W8        30.14R WCI   4
WRAY           NOT AVBL
STERLING       FAIR      18  14  86 CALM      30.16R
HOLYOKE        FAIR      27  19  74 W3        30.16R
FORT MORGAN    FAIR      20  14  77 NW6       30.15R WCI  12
$$

COZ086-089-092>099-021500-
...SOUTHEAST COLORADO...

CITY           SKY/WX    TMP DP  RH WIND       PRES   REMARKS
PUEBLO         FAIR      16   9  74 CALM      30.13R
LA JUNTA       FAIR      18  12  77 W5        30.15R WCI  11
LAMAR          FAIR      14   9  80 SW6       30.17R WCI   5
SPRINGFIELD      N/A     20  10  65 NW3       30.13R
$$




USA.gov is the U.S. government's official web portal to all federal, state and local government web resources and services.